Location: Newark
(49.3808°N, 3.1844°E)
Time: 05:28:08
(UTC+00:00)

Vanguard 1 Rocket - Pass Details

Date: 15 November 2019
Orbit: 650 x 4226 km, 34.3° (Epoch: 13 December)

Event Time Altitude Azimuth Distance (km) Brightness Sun altitude
Rises 08:53:40 0° 254° (WSW) 3,787 10.4 13.7°
Reaches altitude 10° 08:56:52 10° 235° (SW) 3,215 10.2 14.0°
Maximum altitude 09:02:09 19° 194° (SSW) 3,251 10.9 14.5°
Drops below altitude 10° 09:09:41 10° 157° (SSE) 4,836 13.3 15.2°
Sets 09:16:23 0° 143° (SE) 6,612 13.7 15.8°
